Location: Liberec
(50.7830°N, 15.0500°E)
Time: 03:05:40
(UTC+01:00)

ISS - Visible Passes

Search period start: 22 January 2019 00:00
Search period end: 01 February 2019 00:00
Orbit: 404 x 410 km, 51.6° (Epoch: 22 January)

Date Brightness Start Highest point End Pass type
(mag) Time Alt. Az. Time Alt. Az. Time Alt. Az.
23 Jan -1.8 18:39:31 10° SSW 18:41:05 18° SSE 18:41:05 18° SSE visible
24 Jan -1.6 17:49:14 10° S 17:50:57 14° SE 17:52:04 12° ESE visible
24 Jan -1.3 19:23:42 10° SW 19:24:48 19° SW 19:24:48 19° SW visible
25 Jan -3.0 18:32:35 10° SW 18:35:40 37° SSE 18:35:43 37° SSE visible
26 Jan -2.3 17:41:41 10° SSW 17:44:27 25° SE 17:46:33 14° E visible
26 Jan -2.0 19:17:23 10° WSW 19:19:16 31° WSW 19:19:16 31° WSW visible
27 Jan -3.7 18:26:04 10° WSW 18:29:21 63° SSE 18:30:03 47° ESE visible
27 Jan -0.3 20:02:35 10° W 20:02:46 11° W 20:02:46 11° W visible
28 Jan -3.1 17:34:51 10° SW 17:38:01 44° SSE 17:40:47 13° E visible
28 Jan -2.6 19:11:09 10° W 19:13:30 43° W 19:13:30 43° W visible
29 Jan -3.9 18:19:44 10° WSW 18:23:03 90° E 18:24:13 38° ENE visible
29 Jan -0.5 19:56:21 10° W 19:56:55 14° W 19:56:55 14° W visible
30 Jan -3.7 17:28:20 10° WSW 17:31:38 72° SSE 17:34:53 10° ENE visible
30 Jan -3.1 19:04:55 10° W 19:07:36 54° WNW 19:07:36 54° WNW visible
31 Jan -3.8 18:13:27 10° W 18:16:45 75° N 18:18:17 29° ENE visible
31 Jan -0.9 19:50:04 10° WNW 19:50:59 18° WNW 19:50:59 18° WNW visible
